ONEWEB-0205, 48226

Orbit data source: Space-Track

ONEWEB-0205, 48226 is a payload satellite owned by One Web (NAA) (UK) in LEO that was launched on Sun, 25 Apr 2021 UTC via a SOYUZ-2-1B launch vehicle from the Vostochny Cosmodrome (VOSTO). Payload-class satellites include a variety of spacecraft equipped with specific instruments for various scientific and technological missions. These include communications satellites like Starlink; space stations such as the ISS; scientific satellites like the Hubble; Earth observation satellites from companies like Planet Labs, Umbra, and HawkEye 360; GPS; miniature CubeSats for education and research; and military/defense satellites.

Loading next visibility...
Identifier
48226, 2021-031S
Orbit
LEO
Country
Flag of UKUK
Related business
Manufacturer
One Web
Mission
Operational Commercial Communications
Bus & Motor
ARROW, Unknown motor
Mass
148 kg wet, ~140 kg dry
Launch date (UTC)
2021-04-25 (5 years ago)
Launch vehicle
SOYUZ-2-1B
Launch site
Vostochny Cosmodrome (VOSTO)
Object type
Payload
Rocket body
Debris
Shape & HBR
Trap Box + 2 Pan, 6.7 m
Radar Cross Section
3.464 m², Large (>1 m²)

Expand to show TLE details & history
Last TLE update: 10 hours ago

TLE from 10 hours ago
0 ONEWEB-0205
1 48226U 21031S   25306.45899043  .00000207  00000-0  52364-3 0  9999
2 48226  87.9013 334.8630 0001908  91.5057 268.6291 13.14503896218481
Epoch: 2025-11-02T11:00Z
TLE epoch observation values (Epoch: 2025-11-02T11:00:56.773Z)
Latitude
-0.00003°
Longitude
127.65203°
Altitude
1,208.715 km
Speed
7.25 km/s
True Right ascension
22h 19m 27s
True Declination
0° 00' 00"
Sunlit
Object was in daylight at epoch
Visualization orbit readout
Latitude
Unknown
Longitude
Unknown
Altitude
Unknown
Speed
Unknown
Apparent Right ascension
Unknown
Apparent Declination
Unknown
Sunlit
N/A
Visualization observer readout
Local Sidereal Time
16:53:38
Azimuth
Unknown
Elevation
Unknown
Doppler factor
Unknown
Orbital elements
Apogee altitude
1,204.346 km
Perigee altitude
1,201.453 km
Semi-major axis
7,581.037 km
Eccentricity
0.00019
Inclination
87.9013°
RAAN
334.863°
Arg. of periapsis
91.5057°
True anomaly
268.60724°
Mean anomaly
268.6291°
Eccentric anomaly
268.61817°
Mean motion
3.28814 °/min
Orbital period
109.48 mins
BSTAR
0.00052364
Loading maneuver chart data...
Computing Atmospheric mass density...
Loading historical data...
Loading historical data...
Loading historical data...
Loading historical data...
Loading historical data...
Loading historical data...
Loading historical data...

Documentation

Showing up to 5 results
|